User: anonymous   Login
Location: Ostrava
(49.8330°N, 18.2830°E)
Time: 17:34:05
(UTC+01:00)
Language:

Iridium 7 - Orbit

View from above orbital plane
View from above orbital plane
View from above satellite
View from above satellite

Ground track
Ground track

The orbit data is extracted from the following two-line orbital elements,

1 24793U 97020B   16339.57606589  .00000191  00000-0  61255-4 0  9995
2 24793  86.3983  40.3270 0002215  95.0559 265.0890 14.34227366 25301
Epoch (UTC): 04 December 2016 13:49:32
Eccentricity: 0.0002215
inclination: 86.3983°
perigee height: 776 km
apogee height: 779 km
right ascension of ascending node: 40.3270°
argument of perigee: 95.0559°
revolutions per day: 14.34227366
mean anomaly at epoch: 265.0890°
orbit number at epoch: 2530

The dashed part of the orbit path shows where the satellite is in the earth's shadow,  

DLR